User: anonymous   Login
Location: Arezzo
(43.4170°N, 11.8830°E)
Time: 18:54:36
(UTC+02:00)
Language:

STARLINK-2647 - Orbit

View from above orbital plane
View from above orbital plane
View from above satellite
View from above satellite

Ground track
Ground track

The orbit data is extracted from the following two-line orbital elements,

1 48658C 21044W   21270.41253328 -.00015885  00000-0 -10645-2 0  2701
2 48658  53.0543 213.2806 0001435  78.3595 227.4551 15.06407031    19
Epoch (UTC): 27 September 2021 09:54:02
Eccentricity: 0.0001435
inclination: 53.0543°
perigee height: 546 km
apogee height: 548 km
right ascension of ascending node: 213.2806°
argument of perigee: 78.3595°
revolutions per day: 15.06407031
mean anomaly at epoch: 227.4551°
orbit number at epoch: 1

The dashed part of the orbit path shows where the satellite is in the earth's shadow,  

DLR